DW9110 Weather Reports


Display with metric or nautical units.
time (UTC)temp
F
wind
direction
speed
MPH
gust
MPH
rain 1hr
in
rain 24hr
in
rain mn
in
humidity
%
barometer
mb
20260504220048 81 259 9.0 18.0 0.00 0.00 0.00 47 1001.5
20260504214547 81 240 8.0 23.0 0.00 0.00 0.00 47 1001.5
20260504213048 81 194 7.0 22.0 0.00 0.00 0.00 48 1001.5
20260504211545 81 232 6.0 21.0 0.00 0.00 0.00 49 1001.6
20260504210043 81 216 11.0 23.0 0.00 0.00 0.00 48 1001.7
20260504204541 81 180 8.0 20.0 0.00 0.00 0.00 48 1001.9
20260504203046 81 243 6.0 14.0 0.00 0.00 0.00 47 1002.1
20260504201537 80 244 6.0 16.0 0.00 0.00 0.00 49 1002.3
20260504200035 80 231 7.0 20.0 0.00 0.00 0.00 47 1002.3
20260504194534 79 249 8.0 15.0 0.00 0.00 0.00 48 1002.6
20260504193031 78 242 8.0 19.0 0.00 0.00 0.00 48 1002.4
20260504191529 78 254 9.0 21.0 0.00 0.00 0.00 50 1002.6
20260504190028 77 184 7.0 21.0 0.00 0.00 0.00 49 1002.7
20260504184527 76 238 8.0 24.0 0.00 0.00 0.00 48 1002.7
20260504183026 78 178 7.0 20.0 0.00 0.00 0.00 47 1003.1
20260504181523 77 159 9.0 22.0 0.00 0.00 0.00 48 1003.4
20260504180021 77 246 7.0 18.0 0.00 0.00 0.00 48 1003.4
20260504174519 76 213 8.0 21.0 0.00 0.00 0.00 49 1003.5
20260504173021 77 256 4.0 12.0 0.00 0.00 0.00 50 1003.7
20260504171519 76 217 5.0 19.0 0.00 0.00 0.00 51 1003.9
20260504160108 67 165 0.0 4.0 0.00 0.00 0.00 68 1004.3
20260504081519 63 252 0.0 6.0 0.00 0.00 0.00 73 1006.4
20260504044609 58 266 0.0 0.0 0.00 0.00 0.00 85 1008.0
20260504043054 58 266 0.0 0.0 0.00 0.00 0.00 84 1008.1
20260504041553 59 266 0.0 0.0 0.00 0.00 0.00 83 1008.2
20260504040104 59 266 0.0 0.0 0.00 0.00 0.00 83 1008.3
20260504034551 60 266 0.0 0.0 0.00 0.00 0.00 82 1008.4
20260504033052 61 266 0.0 0.0 0.00 0.00 0.00 81 1008.6
20260504031550 62 266 0.0 1.0 0.00 0.00 0.00 80 1008.7
20260504030049 62 266 0.0 0.0 0.00 0.00 0.00 79 1008.8
20260504024549 62 266 0.0 0.0 0.00 0.00 0.00 73 1008.9
20260504023048 64 266 0.0 0.0 0.00 0.00 0.00 74 1008.6
20260504021549 65 266 0.0 0.0 0.00 0.00 0.00 71 1008.4
20260504020046 66 266 0.0 0.0 0.00 0.00 0.00 67 1008.5
20260504014546 68 266 0.0 0.0 0.00 0.00 0.00 64 1008.5
20260504013052 71 266 0.0 0.0 0.00 0.00 0.00 58 1008.4
20260504011545 73 266 0.0 0.0 0.00 0.00 0.00 53 1008.4
20260504010051 74 266 0.0 1.0 0.00 0.00 0.00 48 1008.3
20260504004545 76 266 0.0 2.0 0.00 0.00 0.00 46 1008.3
20260504003042 77 266 1.0 6.0 0.00 0.00 0.00 44 1008.3
20260504001542 77 268 3.0 9.0 0.00 0.00 0.00 43 1008.3
20260504000043 78 275 3.0 10.0 0.00 0.00 0.00 42 1008.3
20260503234540 78 284 1.0 12.0 0.00 0.00 0.00 42 1008.5
20260503233044 78 273 5.0 13.0 0.00 0.00 0.00 41 1008.6
20260503231537 78 266 2.0 10.0 0.00 0.00 0.00 42 1009.1
20260503230036 78 258 4.0 13.0 0.00 0.00 0.00 42 1009.2
20260503224536 78 250 9.0 18.0 0.00 0.00 0.00 41 1008.8
20260503223036 78 259 5.0 13.0 0.00 0.00 0.00 40 1008.8
20260503221536 78 226 5.0 13.0 0.00 0.00 0.00 41 1009.0